Location: General Nathan Twining Observatory
(34.5931°N, 106.8201°W)
Time: 10:28:40
(UTC-06:00)

ADEOS II - Visible Passes

Search period start: 29 August 2016 00:00
Search period end: 08 September 2016 00:00
Orbit: 799 x 802 km, 98.3° (Epoch: 28 August)

Date Brightness Start Highest point End Pass type
(mag) Time Alt. Az. Time Alt. Az. Time Alt. Az.
29 Aug 4.0 04:37:57 10° NE 04:42:23 27° E 04:46:48 10° SSE visible
30 Aug 4.7 04:12:57 10° ENE 04:15:50 15° E 04:18:42 10° SE visible
30 Aug 2.2 05:50:43 10° N 05:55:50 55° WNW 06:00:57 10° SSW visible
31 Aug 2.2 05:24:17 10° NNE 05:29:33 82° ESE 05:34:49 10° S visible
01 Sep 3.1 04:58:10 10° NNE 05:03:11 44° E 05:08:10 10° S visible
02 Sep 4.2 04:32:29 10° NE 04:36:43 24° E 04:40:55 10° SSE visible
02 Sep 2.8 06:11:43 10° N 06:16:26 34° WNW 06:21:07 10° SW visible
03 Sep 4.8 04:07:48 10° ENE 04:10:09 13° E 04:12:29 10° ESE visible
03 Sep 2.1 05:45:02 10° N 05:50:13 62° WNW 05:55:23 10° SSW visible
04 Sep 2.3 05:18:39 10° NNE 05:23:55 73° ESE 05:29:09 10° S visible
05 Sep 3.4 04:52:36 10° NNE 04:57:31 39° E 05:02:24 10° SSE visible
06 Sep 4.3 04:27:03 10° NE 04:31:02 22° E 04:35:00 10° SE visible
06 Sep 2.6 06:05:59 10° N 06:10:49 38° WNW 06:15:39 10° SW visible
07 Sep 4.9 04:02:53 10° ENE 04:04:27 11° E 04:06:00 10° ESE visible
07 Sep 2.0 05:39:22 10° N 05:44:36 70° WNW 05:49:49 10° SSW visible
